Time,TemperatureF,DewpointF,PressureIn,WindDirection,WindDirectionDegrees,WindSpeedMPH,WindSpeedGustMPH,Humidity,HourlyPrecipIn,Conditions,Clouds,dailyrainin,SoftwareType,DateUTC
2013-03-06 00:33:00,48.0,-99.9,-100.00,West,260,13.0,34.0,-999,-99.99,,,-99.99,,2013-03-06 05:33:00,
2013-03-06 00:40:00,45.0,-99.9,-100.00,West,260,11.0,31.0,-999,-99.99,,,-99.99,,2013-03-06 05:40:00,
2013-03-06 01:32:00,45.0,-99.9,-100.00,West,260,11.0,31.0,-999,-99.99,,,-99.99,,2013-03-06 06:32:00,
2013-03-06 01:40:00,43.0,-99.9,-100.00,West,270,28.0,40.0,-999,-99.99,,,-99.99,,2013-03-06 06:40:00,
2013-03-06 02:32:00,43.0,-99.9,-100.00,West,270,28.0,40.0,-999,-99.99,,,-99.99,,2013-03-06 07:32:00,
2013-03-06 02:40:00,43.0,-99.9,-100.00,West,260,17.0,37.0,-999,-99.99,,,-99.99,,2013-03-06 07:40:00,
2013-03-06 03:32:00,43.0,-99.9,-100.00,West,260,17.0,37.0,-999,-99.99,,,-99.99,,2013-03-06 08:32:00,
2013-03-06 03:40:00,42.0,-99.9,-100.00,WSW,240,9.0,23.0,-999,-99.99,,,-99.99,,2013-03-06 08:40:00,
2013-03-06 04:32:00,42.0,-99.9,-100.00,WSW,240,9.0,23.0,-999,-99.99,,,-99.99,,2013-03-06 09:32:00,
2013-03-06 04:40:00,42.0,-99.9,-100.00,West,260,21.0,29.0,-999,-99.99,,,-99.99,,2013-03-06 09:40:00,
2013-03-06 05:32:00,42.0,-99.9,-100.00,West,260,21.0,29.0,-999,-99.99,,,-99.99,,2013-03-06 10:32:00,
2013-03-06 05:40:00,40.0,-99.9,-100.00,West,260,26.0,39.0,-999,-99.99,,,-99.99,,2013-03-06 10:40:00,
2013-03-06 06:32:00,40.0,-99.9,-100.00,West,260,26.0,39.0,-999,-99.99,,,-99.99,,2013-03-06 11:32:00,
2013-03-06 06:40:00,38.0,-99.9,-100.00,West,270,25.0,34.0,-999,-99.99,,,-99.99,,2013-03-06 11:40:00,
2013-03-06 07:33:00,38.0,-99.9,-100.00,West,270,25.0,34.0,-999,-99.99,,,-99.99,,2013-03-06 12:33:00,
2013-03-06 07:40:00,37.0,-99.9,-100.00,West,270,22.0,30.0,-999,-99.99,,,-99.99,,2013-03-06 12:40:00,
2013-03-06 08:32:00,37.0,-99.9,-100.00,West,270,22.0,30.0,-999,-99.99,,,-99.99,,2013-03-06 13:32:00,
2013-03-06 08:40:00,38.0,-99.9,-100.00,West,260,18.0,33.0,-999,-99.99,,,-99.99,,2013-03-06 13:40:00,
2013-03-06 09:32:00,38.0,-99.9,-100.00,West,260,18.0,33.0,-999,-99.99,,,-99.99,,2013-03-06 14:32:00,
2013-03-06 09:40:00,40.0,-99.9,-100.00,West,260,25.0,36.0,-999,-99.99,,,-99.99,,2013-03-06 14:40:00,
2013-03-06 10:32:00,40.0,-99.9,-100.00,West,260,25.0,36.0,-999,-99.99,,,-99.99,,2013-03-06 15:32:00,
2013-03-06 10:40:00,41.0,-99.9,-100.00,WNW,290,25.0,33.0,-999,-99.99,,,-99.99,,2013-03-06 15:40:00,
2013-03-06 11:32:00,41.0,-99.9,-100.00,WNW,290,25.0,33.0,-999,-99.99,,,-99.99,,2013-03-06 16:32:00,
2013-03-06 11:40:00,42.0,-99.9,-100.00,West,260,18.0,33.0,-999,-99.99,,,-99.99,,2013-03-06 16:40:00,
2013-03-06 12:01:00,42.0,-99.9,-100.00,West,260,18.0,33.0,-999,-99.99,,,-99.99,,2013-03-06 17:01:00,
2013-03-06 12:11:00,42.0,-99.9,-100.00,West,260,18.0,33.0,-999,-99.99,,,-99.99,,2013-03-06 17:11:00,
2013-03-06 12:22:00,42.0,-99.9,-100.00,West,260,18.0,33.0,-999,-99.99,,,-99.99,,2013-03-06 17:22:00,
2013-03-06 12:32:00,42.0,-99.9,-100.00,West,260,18.0,33.0,-999,-99.99,,,-99.99,,2013-03-06 17:32:00,
2013-03-06 12:40:00,44.0,-99.9,-100.00,West,260,16.0,26.0,-999,-99.99,,,-99.99,,2013-03-06 17:40:00,
2013-03-06 13:02:00,44.0,-99.9,-100.00,West,260,16.0,26.0,-999,-99.99,,,-99.99,,2013-03-06 18:02:00,
2013-03-06 13:29:00,44.0,-99.9,-100.00,West,260,16.0,26.0,-999,-99.99,,,-99.99,,2013-03-06 18:29:00,
2013-03-06 13:40:00,45.0,-99.9,-100.00,West,260,21.0,32.0,-999,-99.99,,,-99.99,,2013-03-06 18:40:00,
2013-03-06 14:02:00,45.0,-99.9,-100.00,West,260,21.0,32.0,-999,-99.99,,,-99.99,,2013-03-06 19:02:00,
2013-03-06 14:11:00,45.0,-99.9,-100.00,West,260,21.0,32.0,-999,-99.99,,,-99.99,,2013-03-06 19:11:00,
2013-03-06 14:22:00,45.0,-99.9,-100.00,West,260,21.0,32.0,-999,-99.99,,,-99.99,,2013-03-06 19:22:00,
2013-03-06 14:33:00,45.0,-99.9,-100.00,West,260,21.0,32.0,-999,-99.99,,,-99.99,,2013-03-06 19:33:00,
2013-03-06 14:40:00,46.0,-99.9,-100.00,WNW,290,24.0,31.0,-999,-99.99,,,-99.99,,2013-03-06 19:40:00,
2013-03-06 15:02:00,46.0,-99.9,-100.00,WNW,290,24.0,31.0,-999,-99.99,,,-99.99,,2013-03-06 20:02:00,
2013-03-06 15:12:00,46.0,-99.9,-100.00,WNW,290,24.0,31.0,-999,-99.99,,,-99.99,,2013-03-06 20:12:00,
2013-03-06 15:23:00,46.0,-99.9,-100.00,WNW,290,24.0,31.0,-999,-99.99,,,-99.99,,2013-03-06 20:23:00,
2013-03-06 15:33:00,46.0,-99.9,-100.00,WNW,290,24.0,31.0,-999,-99.99,,,-99.99,,2013-03-06 20:33:00,
2013-03-06 15:40:00,47.0,-99.9,-100.00,WNW,290,25.0,31.0,-999,-99.99,,,-99.99,,2013-03-06 20:40:00,
2013-03-06 16:02:00,47.0,-99.9,-100.00,WNW,290,25.0,31.0,-999,-99.99,,,-99.99,,2013-03-06 21:02:00,
2013-03-06 16:12:00,47.0,-99.9,-100.00,WNW,290,25.0,31.0,-999,-99.99,,,-99.99,,2013-03-06 21:12:00,
2013-03-06 16:23:00,47.0,-99.9,-100.00,WNW,290,25.0,31.0,-999,-99.99,,,-99.99,,2013-03-06 21:23:00,
2013-03-06 16:33:00,47.0,-99.9,-100.00,WNW,290,25.0,31.0,-999,-99.99,,,-99.99,,2013-03-06 21:33:00,
2013-03-06 16:40:00,47.0,-99.9,-100.00,WNW,290,17.0,29.0,-999,-99.99,,,-99.99,,2013-03-06 21:40:00,
2013-03-06 17:02:00,47.0,-99.9,-100.00,WNW,290,17.0,29.0,-999,-99.99,,,-99.99,,2013-03-06 22:02:00,
2013-03-06 17:12:00,47.0,-99.9,-100.00,WNW,290,17.0,29.0,-999,-99.99,,,-99.99,,2013-03-06 22:12:00,
2013-03-06 17:22:00,47.0,-99.9,-100.00,WNW,290,17.0,29.0,-999,-99.99,,,-99.99,,2013-03-06 22:22:00,
2013-03-06 17:32:00,47.0,-99.9,-100.00,WNW,290,17.0,29.0,-999,-99.99,,,-99.99,,2013-03-06 22:32:00,
2013-03-06 17:40:00,46.0,-99.9,-100.00,WNW,290,21.0,25.0,-999,-99.99,,,-99.99,,2013-03-06 22:40:00,
2013-03-06 18:02:00,46.0,-99.9,-100.00,WNW,290,21.0,25.0,-999,-99.99,,,-99.99,,2013-03-06 23:02:00,
2013-03-06 18:11:00,46.0,-99.9,-100.00,WNW,290,21.0,25.0,-999,-99.99,,,-99.99,,2013-03-06 23:11:00,
2013-03-06 18:22:00,46.0,-99.9,-100.00,WNW,290,21.0,25.0,-999,-99.99,,,-99.99,,2013-03-06 23:22:00,
2013-03-06 18:32:00,46.0,-99.9,-100.00,WNW,290,21.0,25.0,-999,-99.99,,,-99.99,,2013-03-06 23:32:00,
2013-03-06 18:40:00,45.0,-99.9,-100.00,WNW,300,20.0,26.0,-999,-99.99,,,-99.99,,2013-03-06 23:40:00,
2013-03-06 19:02:00,45.0,-99.9,-100.00,WNW,300,20.0,26.0,-999,-99.99,,,-99.99,,2013-03-07 00:02:00,
2013-03-06 19:11:00,45.0,-99.9,-100.00,WNW,300,20.0,26.0,-999,-99.99,,,-99.99,,2013-03-07 00:11:00,
2013-03-06 19:22:00,45.0,-99.9,-100.00,WNW,300,20.0,26.0,-999,-99.99,,,-99.99,,2013-03-07 00:22:00,
2013-03-06 19:32:00,45.0,-99.9,-100.00,WNW,300,20.0,26.0,-999,-99.99,,,-99.99,,2013-03-07 00:32:00,
2013-03-06 19:40:00,43.0,-99.9,-100.00,West,280,15.0,20.0,-999,-99.99,,,-99.99,,2013-03-07 00:40:00,
2013-03-06 20:02:00,43.0,-99.9,-100.00,West,280,15.0,20.0,-999,-99.99,,,-99.99,,2013-03-07 01:02:00,
2013-03-06 20:12:00,43.0,-99.9,-100.00,West,280,15.0,20.0,-999,-99.99,,,-99.99,,2013-03-07 01:12:00,
2013-03-06 20:22:00,43.0,-99.9,-100.00,West,280,15.0,20.0,-999,-99.99,,,-99.99,,2013-03-07 01:22:00,
2013-03-06 20:32:00,43.0,-99.9,-100.00,West,280,15.0,20.0,-999,-99.99,,,-99.99,,2013-03-07 01:32:00,
2013-03-06 20:40:00,42.0,-99.9,-100.00,WNW,290,18.0,26.0,-999,-99.99,,,-99.99,,2013-03-07 01:40:00,
2013-03-06 21:32:00,42.0,-99.9,-100.00,WNW,290,18.0,26.0,-999,-99.99,,,-99.99,,2013-03-07 02:32:00,
2013-03-06 21:40:00,41.0,-99.9,-100.00,NW,310,16.0,20.0,-999,-99.99,,,-99.99,,2013-03-07 02:40:00,
2013-03-06 22:32:00,41.0,-99.9,-100.00,NW,310,16.0,20.0,-999,-99.99,,,-99.99,,2013-03-07 03:32:00,
2013-03-06 22:40:00,40.0,-99.9,-100.00,NW,310,16.0,20.0,-999,-99.99,,,-99.99,,2013-03-07 03:40:00,
2013-03-06 23:02:00,40.0,-99.9,-100.00,NW,310,16.0,20.0,-999,-99.99,,,-99.99,,2013-03-07 04:02:00,
2013-03-06 23:12:00,40.0,-99.9,-100.00,NW,310,16.0,20.0,-999,-99.99,,,-99.99,,2013-03-07 04:12:00,
2013-03-06 23:22:00,40.0,-99.9,-100.00,NW,310,16.0,20.0,-999,-99.99,,,-99.99,,2013-03-07 04:22:00,
2013-03-06 23:32:00,40.0,-99.9,-100.00,NW,310,16.0,20.0,-999,-99.99,,,-99.99,,2013-03-07 04:32:00,
2013-03-06 23:40:00,38.0,-99.9,-100.00,NW,310,16.0,18.0,-999,-99.99,,,-99.99,,2013-03-07 04:40:00,